[[{"header":{"parameterUnit":"m.s-1","parameterCategory":1,"la1":30.2991,"la2":30.254,"lo1":-89.0895,"lo2":-89.0444,"dy":0.0017,"dx":0.0017,"nx":28,"ny":28,"refTime":"2025-07-30T03:00:00:Z","depth":0,"parameterNumber":2,"parameterNumberName":"U-component_of_WINDS"},"data":[0,0,0,0,0,0,0,0,0,0,0,0,0,0,0,0,0,0,0,0,0,0,0,0,0,0,0,0,0,0,0,0,0,0,0,0,0,0,0,0,0,0,0,0,0,0,0,0,0,0,0,0,0,0,0,0,0,0,1.5816,1.5816,0,1.5803,1.5803,1.5802,1.582,1.5821,1.5822,1.5822,1.5808,1.5807,1.5806,0,0,0,0,0,0,0,0,0,0,0,0,0,1.586,1.586,1.5816,1.5816,1.5816,1.5803,1.5803,1.5802,1.582,1.5821,1.5822,1.5823,1.5809,1.5807,1.5806,0,0,0,0,0,0,0,0,0,0,0,0,0,1.5843,1.5859,1.5816,1.5823,1.5824,1.5803,1.5803,1.5802,1.582,1.5821,1.5822,1.5823,1.5809,1.5808,1.5806,1.5777,0,0,1.5802,1.5801,0,0,0,0,0,0,0,0,1.5844,1.5842,1.5823,1.5823,1.5823,1.5814,1.5813,1.5794,1.582,1.5822,1.5822,1.5823,1.581,1.5808,1.5803,1.5777,1.5776,1.5801,1.5801,1.58,1.58,0,0,0,0,0,0,0,1.5846,1.5843,1.5811,1.5822,1.5823,1.5828,1.5827,1.5809,1.581,1.5821,1.5823,1.5821,1.581,1.5805,1.5803,1.5776,1.5802,1.58,1.5799,1.5799,1.5729,1.5728,0,0,0,0,0,0,1.5846,1.5843,1.5811,1.5811,1.5837,1.5826,1.5825,1.5816,1.581,1.581,1.582,1.5822,1.5807,1.5805,1.5803,1.577,1.58,1.5799,1.5798,1.573,1.5729,1.5728,0,0,0,0,0,0,1.5847,1.5843,1.5812,1.5827,1.5824,1.5825,1.5815,1.5815,1.581,1.5809,1.581,1.5814,1.5807,1.5805,1.5784,1.577,1.5798,1.5797,1.5731,1.573,1.5728,1.5705,0,0,0,0,0,0,1.5848,1.5843,1.5831,1.5827,1.5823,1.5793,1.5814,1.5814,1.5808,1.581,1.5804,1.5804,1.5808,1.5786,1.5783,1.5769,1.5795,1.5732,1.573,1.5729,1.5707,1.5702,1.5699,0,0,0,0,0,1.5849,1.5824,1.583,1.5826,1.5808,1.5792,1.579,1.5794,1.5806,1.5795,1.5795,1.5804,1.5773,1.5784,1.578,1.5765,1.5733,1.5731,1.5729,1.5708,1.5703,1.5699,0,0,0,0,0,0,1.5825,1.5824,1.583,1.5803,1.5798,1.5795,1.578,1.5789,1.5779,1.5782,1.5789,1.5787,1.5766,1.5764,1.5777,1.5739,1.5755,1.5752,1.5741,1.5736,1.5732,1.5733,1.5794,0,0,0,0,0,1.5817,1.5804,1.5803,1.5779,1.5776,1.5779,1.5772,1.5777,1.5771,1.5769,1.5767,1.5762,1.5751,1.5744,1.5733,1.5707,1.5707,1.5695,1.5692,1.5688,1.5685,1.5674,1.5669,1.572,1.572,1.5721,0,0,1.5799,1.5797,1.5788,1.5775,1.5771,1.5758,1.5777,1.5761,1.5752,1.5767,1.5747,1.5747,1.5741,1.5719,1.5708,1.5716,1.5672,1.5686,1.5683,1.5682,1.5671,1.5666,1.5662,1.5719,1.5719,1.5719,0,0,1.5761,1.5757,1.5738,1.5734,1.5729,1.5732,1.5728,1.5724,1.5725,1.5706,1.5717,1.5707,1.5688,1.5684,1.568,1.5644,1.5653,1.5641,1.5621,1.5609,1.5605,1.5602,1.559,1.5586,1.5638,1.5638,1.5638,0,1.5739,1.5719,1.5727,1.5711,1.5706,1.572,1.5702,1.5698,1.569,1.5686,1.5696,1.5674,1.5671,1.5649,1.5641,1.5636,1.5633,1.5641,1.5605,1.5602,1.5598,1.5588,1.5583,1.5637,1.5637,1.5637,1.5637,0,1.5694,1.568,1.5666,1.5658,1.5652,1.5635,1.5641,1.5634,1.564,1.5642,1.5625,1.5623,1.5614,1.5609,1.5614,1.5588,1.5594,1.5604,1.562,1.5592,1.5582,1.5578,1.5635,1.5635,1.5636,1.5636,0,0,1.5636,1.5636,1.5631,1.5629,1.5626,1.5616,1.5601,1.5593,1.5587,1.5582,1.5571,1.5556,1.5567,1.5562,1.5568,1.5558,1.5532,1.557,1.557,1.5563,1.5505,1.5497,1.5492,1.5539,1.5538,1.5537,1.5506,0,1.5598,1.5572,1.558,1.5554,1.5543,1.5558,1.5546,1.5544,1.5546,1.5538,1.5542,1.5531,1.5546,1.5543,1.5534,1.5537,1.5521,1.554,1.5529,1.5528,1.5529,1.5487,1.5477,1.5448,1.5502,1.5501,1.5501,0,1.5548,1.5543,1.5516,1.5519,1.5514,1.5502,1.5497,1.5489,1.5488,1.5491,1.5488,1.5497,1.5484,1.5502,1.5485,1.5498,1.5495,1.5496,1.5495,1.5494,1.5512,1.5484,1.5438,1.5434,1.5495,1.5495,1.5496,0,1.551,1.5496,1.5479,1.5477,1.5479,1.5471,1.5471,1.5471,1.5467,1.5463,1.5461,1.5455,1.5452,1.5448,1.5457,1.5468,1.544,1.5457,1.5443,1.5442,1.5434,1.5435,1.5387,1.5433,1.5433,1.5433,1.5433,0,1.5466,1.5449,1.5462,1.5451,1.5434,1.5445,1.5428,1.543,1.5431,1.5422,1.5436,1.5427,1.5439,1.5432,1.5439,1.5425,1.5424,1.5426,1.5428,1.5425,1.5425,1.5422,1.5424,1.5432,1.5432,1.5432,1.5433,0,1.5419,1.5427,1.5409,1.5414,1.5415,1.5402,1.5406,1.5397,1.5403,1.5392,1.539,1.5398,1.5391,1.54,1.5393,1.5398,1.538,1.5385,1.538,1.5381,1.5367,1.5368,1.5315,1.531,1.5359,1.5359,1.5358,0,1.5389,1.5377,1.5381,1.5377,1.5377,1.5369,1.5366,1.5377,1.5373,1.5373,1.5365,1.536,1.5356,1.5345,1.535,1.5347,1.5352,1.5334,1.5351,1.5349,1.5352,1.5353,1.5352,1.533,1.5329,1.5329,1.5328,0,1.5337,1.5343,1.5337,1.5334,1.5329,1.5327,1.5326,1.5322,1.5334,1.5329,1.5323,1.532,1.5315,1.531,1.5309,1.5311,1.5322,1.5323,1.532,1.5316,1.5314,1.5316,1.537,1.5324,1.5324,1.5325,1.5325,1.5325,1.5298,1.5289,1.5292,1.5286,1.5287,1.5286,1.5279,1.5285,1.528,1.5277,1.5285,1.5277,1.528,1.5279,1.528,1.5275,1.5283,1.5278,1.5277,1.5275,1.5273,1.5315,1.5275,1.5275,1.5275,1.5276,1.5276,0,1.5248,1.5251,1.5246,1.5244,1.5241,1.5253,1.5254,1.5249,1.5243,1.5245,1.5241,1.5236,1.5232,1.5239,1.5237,1.5232,1.5238,1.5231,1.5232,1.5232,1.5266,1.5269,1.5227,1.5227,1.5227,1.5227,1.5227,1.5227,1.522,1.5206,1.5213,1.5201,1.5204,1.5197,1.5197,1.5197,1.5199,1.5192,1.519,1.5195,1.52,1.5199,1.5197,1.5199,1.5198,1.519,1.5194,1.5225,1.523,1.5234,1.5237,1.519,1.519,1.5161,1.5161,1.5161]},{"header":{"parameterUnit":"m.s-1","parameterCategory":1,"la1":30.2991,"la2":30.254,"lo1":-89.0895,"lo2":-89.0444,"dy":0.0017,"dx":0.0017,"nx":28,"ny":28,"refTime":"2025-07-30T03:00:00:Z","depth":0,"parameterNumber":3,"parameterNumberName":"V-component_of_WINDS"},"data":[0,0,0,0,0,0,0,0,0,0,0,0,0,0,0,0,0,0,0,0,0,0,0,0,0,0,0,0,0,0,0,0,0,0,0,0,0,0,0,0,0,0,0,0,0,0,0,0,0,0,0,0,0,0,0,0,0,0,-2.758,-2.7579,0,-2.7524,-2.7523,-2.7522,-2.7425,-2.7424,-2.7422,-2.742,-2.7364,-2.7364,-2.7364,0,0,0,0,0,0,0,0,0,0,0,0,0,-2.7605,-2.7605,-2.758,-2.7579,-2.7579,-2.7524,-2.7523,-2.7522,-2.7426,-2.7423,-2.7421,-2.7419,-2.7364,-2.7364,-2.7364,0,0,0,0,0,0,0,0,0,0,0,0,0,-2.7576,-2.7605,-2.758,-2.7524,-2.7518,-2.7524,-2.7523,-2.7522,-2.7426,-2.7423,-2.7421,-2.7418,-2.7364,-2.7364,-2.7364,-2.7421,0,0,-2.7365,-2.7365,0,0,0,0,0,0,0,0,-2.7578,-2.7575,-2.7533,-2.7528,-2.7521,-2.7479,-2.7511,-2.7488,-2.7427,-2.7461,-2.742,-2.7417,-2.7404,-2.7401,-2.7397,-2.7418,-2.7416,-2.7365,-2.7365,-2.7365,-2.7366,0,0,0,0,0,0,0,-2.758,-2.7577,-2.7558,-2.7532,-2.7525,-2.7502,-2.7494,-2.7506,-2.7449,-2.7458,-2.7451,-2.7445,-2.7401,-2.7397,-2.7395,-2.7415,-2.7365,-2.7365,-2.7366,-2.7366,-2.7479,-2.7482,0,0,0,0,0,0,-2.759,-2.7579,-2.7559,-2.7556,-2.7543,-2.7503,-2.7495,-2.7495,-2.7448,-2.7439,-2.7448,-2.7441,-2.7397,-2.7394,-2.7392,-2.7454,-2.7365,-2.7366,-2.7366,-2.7476,-2.748,-2.7483,0,0,0,0,0,0,-2.7591,-2.7589,-2.7562,-2.7566,-2.756,-2.7506,-2.7506,-2.7496,-2.7491,-2.7441,-2.743,-2.7454,-2.7395,-2.7392,-2.7414,-2.7451,-2.7366,-2.7366,-2.7473,-2.7477,-2.7481,-2.7581,0,0,0,0,0,0,-2.7592,-2.759,-2.7611,-2.7567,-2.7561,-2.7585,-2.7509,-2.7496,-2.7492,-2.7483,-2.7444,-2.7435,-2.7393,-2.7414,-2.7414,-2.745,-2.7366,-2.7469,-2.7475,-2.748,-2.7574,-2.7588,-2.76,0,0,0,0,0,-2.7593,-2.7642,-2.7612,-2.7611,-2.7585,-2.7587,-2.7583,-2.7534,-2.7495,-2.7516,-2.7483,-2.7436,-2.7447,-2.7417,-2.7417,-2.7453,-2.7467,-2.7473,-2.7479,-2.7568,-2.7585,-2.7599,0,0,0,0,0,0,-2.7692,-2.7635,-2.7602,-2.7637,-2.7618,-2.7571,-2.7595,-2.7554,-2.7545,-2.7537,-2.7476,-2.7468,-2.7498,-2.7478,-2.7445,-2.7505,-2.7449,-2.7456,-2.7517,-2.7533,-2.7546,-2.755,-2.7367,0,0,0,0,0,-2.7718,-2.7724,-2.7674,-2.771,-2.7702,-2.7651,-2.7649,-2.7613,-2.759,-2.7581,-2.755,-2.7531,-2.7529,-2.753,-2.7526,-2.757,-2.756,-2.7595,-2.7608,-2.7619,-2.7625,-2.7646,-2.7661,-2.7503,-2.7503,-2.7503,0,0,-2.7772,-2.7741,-2.7749,-2.7729,-2.7709,-2.7717,-2.7644,-2.7655,-2.766,-2.7583,-2.7602,-2.7579,-2.7552,-2.7586,-2.7599,-2.757,-2.7666,-2.7627,-2.7636,-2.7636,-2.7654,-2.7669,-2.7682,-2.7508,-2.7507,-2.7506,0,0,-2.7873,-2.7851,-2.7878,-2.786,-2.7831,-2.7796,-2.7803,-2.7762,-2.7743,-2.7761,-2.7703,-2.7708,-2.7708,-2.7691,-2.7683,-2.7777,-2.7733,-2.7778,-2.7846,-2.7867,-2.7879,-2.789,-2.7923,-2.7936,-2.7784,-2.7785,-2.7785,0,-2.7944,-2.7952,-2.7898,-2.7912,-2.7905,-2.7835,-2.7862,-2.7847,-2.7819,-2.7816,-2.7784,-2.7781,-2.7758,-2.7786,-2.7809,-2.7805,-2.781,-2.7782,-2.7882,-2.7892,-2.7901,-2.7932,-2.7945,-2.779,-2.779,-2.7789,-2.7789,0,-2.804,-2.8047,-2.8073,-2.8046,-2.8042,-2.8063,-2.8012,-2.8014,-2.7978,-2.7947,-2.7965,-2.7936,-2.7924,-2.7928,-2.7893,-2.7951,-2.7934,-2.7893,-2.7836,-2.7922,-2.795,-2.7962,-2.7798,-2.7796,-2.7795,-2.7793,0,0,-2.8203,-2.8145,-2.8156,-2.8143,-2.8105,-2.811,-2.8127,-2.8115,-2.8118,-2.8101,-2.8114,-2.8115,-2.8076,-2.8067,-2.8029,-2.8048,-2.8124,-2.8004,-2.8002,-2.8027,-2.8185,-2.8216,-2.823,-2.8094,-2.8096,-2.8098,-2.8187,0,-2.8296,-2.8323,-2.8274,-2.8312,-2.8317,-2.8251,-2.8266,-2.8245,-2.8216,-2.8216,-2.8184,-2.8186,-2.8135,-2.8129,-2.8144,-2.8111,-2.8154,-2.8104,-2.8105,-2.8106,-2.8114,-2.8245,-2.8278,-2.8363,-2.8197,-2.8199,-2.82,0,-2.8409,-2.8396,-2.8435,-2.8395,-2.8395,-2.841,-2.8394,-2.8396,-2.837,-2.8348,-2.8337,-2.8292,-2.8306,-2.8252,-2.827,-2.8237,-2.8234,-2.8218,-2.822,-2.8219,-2.8159,-2.8246,-2.839,-2.8403,-2.8217,-2.8216,-2.8215,0,-2.8523,-2.8516,-2.8538,-2.8529,-2.8482,-2.8494,-2.8475,-2.8447,-2.8443,-2.843,-2.8426,-2.8415,-2.8409,-2.8402,-2.8355,-2.8319,-2.8379,-2.832,-2.836,-2.8362,-2.8376,-2.8376,-2.8521,-2.8375,-2.8375,-2.8375,-2.8374,0,-2.8632,-2.8659,-2.8589,-2.8602,-2.8629,-2.8573,-2.8601,-2.8576,-2.8551,-2.8558,-2.85,-2.8508,-2.8446,-2.8447,-2.8411,-2.8431,-2.8429,-2.8411,-2.8401,-2.8416,-2.8419,-2.8414,-2.8407,-2.8378,-2.8377,-2.8377,-2.8376,0,-2.8765,-2.8719,-2.8738,-2.8692,-2.8681,-2.8704,-2.8664,-2.8675,-2.8642,-2.8652,-2.8651,-2.86,-2.8598,-2.855,-2.8539,-2.8514,-2.855,-2.8529,-2.8558,-2.8552,-2.8594,-2.8591,-2.8741,-2.8758,-2.8602,-2.8604,-2.8605,0,-2.8837,-2.8856,-2.8812,-2.8812,-2.8796,-2.8798,-2.8793,-2.8738,-2.8735,-2.8707,-2.8721,-2.8714,-2.8706,-2.8706,-2.8668,-2.8659,-2.8637,-2.869,-2.8635,-2.865,-2.8637,-2.8637,-2.8638,-2.8702,-2.8704,-2.8705,-2.8707,0,-2.8971,-2.8947,-2.8942,-2.893,-2.8926,-2.8913,-2.8897,-2.8901,-2.884,-2.884,-2.8837,-2.8831,-2.8818,-2.8813,-2.8796,-2.8776,-2.8732,-2.8724,-2.8733,-2.8749,-2.8765,-2.8756,-2.859,-2.8721,-2.872,-2.8719,-2.8718,-2.8717,-2.9075,-2.9088,-2.9059,-2.9055,-2.9037,-2.9023,-2.9031,-2.8999,-2.8995,-2.8981,-2.8948,-2.8951,-2.8924,-2.8897,-2.8881,-2.8882,-2.8854,-2.8867,-2.887,-2.8875,-2.8883,-2.8765,-2.8878,-2.8878,-2.8877,-2.8877,-2.8877,0,-2.9206,-2.9183,-2.9181,-2.9159,-2.9157,-2.9114,-2.9094,-2.9094,-2.9097,-2.9075,-2.9068,-2.9065,-2.9058,-2.9019,-2.9009,-2.9017,-2.8996,-2.9016,-2.9014,-2.901,-2.8908,-2.8901,-2.9033,-2.9033,-2.9033,-2.9033,-2.9033,-2.9032,-2.9273,-2.9293,-2.9266,-2.9275,-2.9253,-2.9254,-2.9246,-2.9233,-2.9215,-2.9214,-2.9208,-2.9183,-2.9154,-2.914,-2.9132,-2.9121,-2.9119,-2.9146,-2.9128,-2.9033,-2.9018,-2.9004,-2.8997,-2.9146,-2.9147,-2.923,-2.9231,-2.9232]}]]